Tracking 30970 objects as of 3-Jul-2025
HD Live streaming from Space Station
objects crossing your sky now

SUPERBIRD C

Track SUPERBIRD C now!
SUPERBIRD C is classified as:


NORAD ID: 24880
Int'l Code: 1997-036A
Perigee: 36,112.3 km
Apogee: 36,155.1 km
Inclination: 11.5 °
Period: 1,453.5 minutes
Semi major axis: 42504 km
RCS: 12.5892 m2 (large)
Launch date: July 28, 1997
Source: Japan (JPN)
Launch site: AIR FORCE EASTERN TEST RANGE (AFETR)

14 Ku-band; Asia-Pacific region; voice and video communications.
Your satellite tracking list
Your tracking list is empty




NASA's NSSDC Master Catalog

Two Line Element Set (TLE):
1 24880U 97036A   25183.02408066 -.00000150  00000-0  00000-0 0  9999
2 24880  11.4740  36.5248 0005031 357.4137   2.5876  0.99071311 61408
Source of the keplerian elements: AFSPC